Terminal Aerodrome Forecast
Issued by NWS Raleigh/Durham, NC

Home | Current Version | Previous Version | Text Only | Print | Product List | Glossary On
Versions: 1 2 3 4 5 6 7 8 9 10 11 12 13 14 15 16 17 18 19 20 21 22 23 24 25 26 27 28 29 30 31 32 33 34 35 36 37 38 39 40 41 42 43 44 45 46 47 48 49
000
FTUS42 KRAH 261833 AAA
TAFGSO
TAF AMD
KGSO 261833Z 2619/2718 01006KT P6SM -RA SCT008 OVC060
      TEMPO 2619/2620 BKN008 BKN060
     FM262000 33006KT P6SM SCT025 BKN060
     FM270400 VRB03KT P6SM -RA BKN025 OVC150
     FM270700 VRB03KT 6SM -RA BR BKN008 OVC040
     FM271300 31010G18KT P6SM SCT012 BKN035=

USA.gov is the U.S. government's official web portal to all federal, state and local government web resources and services.